EW5546 Weather Reports


time (UTC)temp
C
wind
direction
speed
KPH
gust
KPH
rain 1hr
cm
rain 24hr
cm
rain mn
cm
humidity
%
barometer
mb
20260506202035 19 0.0 0.0 0.00 0.00 0.00 41 1004.9
20260506201046 20 0.0 0.0 0.00 0.00 0.00 41 1004.9
20260506200016 20 0.0 0.0 0.00 0.00 0.00 40 1004.9
20260506195038 20 0.0 0.0 0.00 0.00 0.00 39 1004.9
20260506194046 20 0.0 0.0 0.00 0.00 0.00 39 1004.9
20260506193045 20 0.0 0.0 0.00 0.00 0.00 38 1004.9
20260506192045 20 0.0 0.0 0.00 0.00 0.00 37 1004.9
20260506191031 21 0.0 0.0 0.00 0.00 0.00 37 1004.9
20260506190048 21 0.0 0.0 0.00 0.00 0.00 36 1004.9
20260506185033 21 0.0 0.0 0.00 0.00 0.00 36 1004.9
20260506184044 21 0.0 0.0 0.00 0.00 0.00 36 1004.9
20260506183020 21 0.0 0.0 0.00 0.00 0.00 35 1003.9
20260506182036 21 0.0 0.0 0.00 0.00 0.00 35 1003.9
20260506181044 22 0.0 0.0 0.00 0.00 0.00 35 1003.9
20260506180045 22 0.0 0.0 0.00 0.00 0.00 34 1003.9
20260506175025 22 0.0 0.0 0.00 0.00 0.00 34 1003.9
20260506174031 22 0.0 0.0 0.00 0.00 0.00 34 1003.9
20260506173043 22 0.0 0.0 0.00 0.00 0.00 34 1003.9
20260506172126 22 0.0 0.0 0.00 0.00 0.00 34 1003.9
20260506171045 22 0.0 0.0 0.00 0.00 0.00 34 1003.9
20260506170019 22 0.0 0.0 0.00 0.00 0.00 33 1003.9
20260506165016 23 0.0 0.0 0.00 0.00 0.00 33 1003.9
20260506164038 23 0.0 0.0 0.00 0.00 0.00 33 1003.9
20260506163045 23 0.0 0.0 0.00 0.00 0.00 33 1003.9
20260506162059 23 0.0 0.0 0.00 0.00 0.00 33 1003.9
20260506161018 23 0.0 0.0 0.00 0.00 0.00 33 1003.9
20260506160045 23 0.0 0.0 0.00 0.00 0.00 32 1003.9
20260506155039 24 68 3.2 3.2 0.00 0.00 0.00 32 1003.9
20260506154035 24 248 3.2 3.2 0.00 0.00 0.00 32 1003.9
20260506153038 24 225 3.2 3.2 0.00 0.00 0.00 32 1003.9
20260506152035 24 202 3.2 3.2 0.00 0.00 0.00 32 1003.9
20260506151040 24 257 3.2 4.8 0.00 0.00 0.00 32 1003.9
20260506150047 25 248 1.6 3.2 0.00 0.00 0.00 32 1003.9
20260506145025 25 225 1.6 1.6 0.00 0.00 0.00 32 1003.9
20260506144023 25 90 3.2 3.2 0.00 0.00 0.00 31 1003.9
20260506143033 25 223 1.6 3.2 0.00 0.00 0.00 32 1003.9
20260506142121 25 232 3.2 3.2 0.00 0.00 0.00 32 1003.9
20260506141102 25 235 1.6 6.4 0.00 0.00 0.00 32 1003.9
20260506140017 24 234 3.2 6.4 0.00 0.00 0.00 32 1003.9
20260506135039 24 225 3.2 4.8 0.00 0.00 0.00 32 1003.9
20260506134045 25 206 4.8 4.8 0.00 0.00 0.00 32 1003.9
20260506133032 25 264 3.2 4.8 0.00 0.00 0.00 32 1003.9
20260506132019 25 204 1.6 4.8 0.00 0.00 0.00 32 1003.9
20260506131022 25 241 1.6 3.2 0.00 0.00 0.00 33 1003.9
20260506130018 25 203 1.6 3.2 0.00 0.00 0.00 33 1003.9
20260506125042 24 212 4.8 6.4 0.00 0.00 0.00 33 1003.9
20260506124025 23 211 3.2 3.2 0.00 0.00 0.00 33 1003.9
20260506123015 23 210 3.2 3.2 0.00 0.00 0.00 33 1003.9
20260506122104 23 221 1.6 3.2 0.00 0.00 0.00 33 1003.9
20260506121057 23 226 1.6 3.2 0.00 0.00 0.00 33 1003.9
20260506120026 23 196 3.2 4.8 0.00 0.00 0.00 32 1003.9
20260506115044 24 210 1.6 3.2 0.00 0.00 0.00 32 1003.9
20260506114026 24 188 3.2 4.8 0.00 0.00 0.00 32 1003.9
20260506113107 24 205 3.2 3.2 0.00 0.00 0.00 32 1003.9
20260506112023 24 217 3.2 4.8 0.00 0.00 0.00 33 1003.9
20260506111018 24 204 3.2 3.2 0.00 0.00 0.00 32 1003.9
20260506110053 25 241 3.2 4.8 0.00 0.00 0.00 33 1003.9
20260506105027 24 282 3.2 4.8 0.00 0.00 0.00 33 1003.9
20260506104031 24 203 4.8 4.8 0.00 0.00 0.00 33 1003.9
20260506103031 23 235 3.2 3.2 0.00 0.00 0.00 33 1003.9
20260506102045 23 203 1.6 3.2 0.00 0.00 0.00 33 1003.9
20260506101045 23 225 3.2 3.2 0.00 0.00 0.00 33 1003.9
20260506100035 23 240 3.2 3.2 0.00 0.00 0.00 33 1003.9
20260506095045 23 203 1.6 3.2 0.00 0.00 0.00 33 1003.9
20260506094045 23 266 1.6 3.2 0.00 0.00 0.00 33 1003.9
20260506093049 22 220 4.8 6.4 0.00 0.00 0.00 33 1003.9
20260506092101 22 203 1.6 3.2 0.00 0.00 0.00 33 1003.9
20260506091100 22 0.0 0.0 0.00 0.00 0.00 34 1003.9
20260506090016 22 249 3.2 4.8 0.00 0.00 0.00 35 1003.9
20260506085045 22 0.0 0.0 0.00 0.00 0.00 35 1003.9
20260506084016 22 0.0 0.0 0.00 0.00 0.00 35 1003.9
20260506083045 22 0.0 0.0 0.00 0.00 0.00 36 1003.9
20260506082019 21 0.0 0.0 0.00 0.00 0.00 37 1003.9
20260506081045 21 0.0 0.0 0.00 0.00 0.00 37 1003.9
20260506073106 21 0.0 0.0 0.00 0.00 0.00 39 1003.9
20260506072040 20 0.0 0.0 0.00 0.00 0.00 40 1003.9
20260506071036 20 0.0 0.0 0.00 0.00 0.00 41 1003.9
20260506062023 17 0.0 0.0 0.00 0.00 0.00 46 1004.9
20260506061039 17 0.0 0.0 0.00 0.00 0.00 47 1004.9
20260506051107 15 0.0 0.0 0.00 0.00 0.00 54 1004.9
20260506045019 15 0.0 0.0 0.00 0.00 0.00 54 1004.4
20260506044055 -17 0.0 0.0 0.00 0.00 0.00 1004.9
20260506043045 -17 0.0 0.0 0.00 0.00 0.00 1004.9
20260506042125 -17 0.0 0.0 0.00 0.00 0.00 1004.9
20260506041045 -17 0.0 0.0 0.00 0.00 0.00 1004.9
20260506040016 14 0.0 0.0 0.00 0.00 0.00 52 1004.9
20260506035042 14 0.0 0.0 0.00 0.00 0.00 51 1004.9
20260506034039 13 0.0 0.0 0.00 0.00 0.00 51 1004.9
20260506033029 13 0.0 0.0 0.00 0.00 0.00 50 1004.9
20260506032017 13 0.0 0.0 0.00 0.00 0.00 49 1004.9
20260506031038 -17 0.0 0.0 0.00 0.00 0.00 1004.9
20260506030043 13 0.0 0.0 0.00 0.00 0.00 48 1004.9
20260506025048 -17 0.0 0.0 0.00 0.00 0.00 1004.9
20260506024021 -17 0.0 0.0 0.00 0.00 0.00 1004.9
20260506023025 13 0.0 0.0 0.00 0.00 0.00 47 1005.9
20260506022102 13 0.0 0.0 0.00 0.00 0.00 47 1005.9
20260506021033 14 0.0 0.0 0.00 0.00 0.00 47 1005.9
20260506020045 14 0.0 0.0 0.00 0.00 0.00 46 1005.9
20260506015015 14 0.0 0.0 0.00 0.00 0.00 46 1005.9
20260506014031 14 0.0 0.0 0.00 0.00 0.00 46 1005.9
20260506013019 14 0.0 0.0 0.00 0.00 0.00 46 1005.9
20260506012027 15 0.0 0.0 0.00 0.00 0.00 46 1005.9
20260506011049 15 0.0 0.0 0.00 0.00 0.00 46 1005.9
20260506010040 15 0.0 0.0 0.00 0.00 0.00 46 1005.9
20260506005040 15 0.0 0.0 0.00 0.00 0.00 46 1005.9
20260506004027 15 0.0 0.0 0.00 0.00 0.00 46 1005.9
20260506003037 15 263 0.0 1.6 0.00 0.00 0.00 46 1005.9
20260506002017 15 0.0 0.0 0.00 0.00 0.00 47 1005.4
20260506001025 16 23 0.0 1.6 0.00 0.00 0.00 46 1004.9
20260506000033 16 0.0 0.0 0.00 0.00 0.00 47 1004.9
20260505235027 16 23 0.0 1.6 0.00 0.00 0.00 47 1004.9
20260505234043 16 0.0 0.0 0.00 0.00 0.00 47 1004.9
20260505233020 16 0.0 0.0 0.00 0.00 0.00 46 1004.9
20260505232036 17 315 0.0 1.6 0.00 0.00 0.00 46 1004.9
20260505231022 17 0.0 0.0 0.00 0.00 0.00 46 1004.9
20260505230029 17 338 0.0 1.6 0.00 0.00 0.00 45 1004.9
20260505225045 17 0.0 0.0 0.00 0.00 0.00 45 1004.9
20260505224019 17 0.0 0.0 0.00 0.00 0.00 44 1004.9
20260505223037 17 338 0.0 1.6 0.00 0.00 0.00 44 1004.9
20260505222017 18 338 0.0 1.6 0.00 0.00 0.00 43 1005.3
20260505221048 18 315 0.0 1.6 0.00 0.00 0.00 43 1005.9
20260505220019 18 0.0 0.0 0.00 0.00 0.00 43 1004.9
20260505215031 18 338 1.6 1.6 0.00 0.00 0.00 42 1004.9
20260505214102 19 0.0 0.0 0.00 0.00 0.00 41 1004.9
20260505213045 19 0.0 0.0 0.00 0.00 0.00 40 1004.9
20260505212057 19 0.0 0.0 0.00 0.00 0.00 40 1004.9
20260505211023 19 0.0 0.0 0.00 0.00 0.00 39 1004.9
20260505210045 20 315 0.0 1.6 0.00 0.00 0.00 38 1004.9
20260505205045 20 315 0.0 3.2 0.00 0.00 0.00 37 1004.9
20260505204031 20 0.0 0.0 0.00 0.00 0.00 35 1004.9
20260505203017 20 23 0.0 1.6 0.00 0.00 0.00 35 1004.9